Location: Solstice Park, West Seattle
(47.5363°N, 122.3905°W)
Time: 09:04:28
(UTC-07:00)

ISS - Pass Details

Date: 14 May 2021
Orbit: 417 x 422 km, 51.6° (Epoch: 18 June)

Event Time Altitude Azimuth Distance (km) Brightness Sun altitude
Exits shadow 01:34:45 25° 306° (NW) 905 -1.8 -23.4°
Maximum altitude 01:36:14 39° 359° (N) 649 -2.3 -23.4°
Drops below altitude 10° 01:39:27 10° 70° (ENE) 1,509 -0.6 -23.3°
Sets 01:41:39 0° 79° (ENE) 2,375 0.3 -23.3°
